This demonstration page uses our WeatherBlox Daily Observations layout. Learn more.

Left ArrowRight Arrow

39.51506, -84.39828

Hourly Observations for August 4, 2016

Temp ( °F °C ) Dew Point ( °F °C ) Humidity (%) Winds ( mph kmh ) Pressure ( in mb ) Visibility ( mi km ) Precip ( " mm )
12:15 am 00:15 Clear 74 23.6 67 19.6 78 78 N N/A 30.00 1016 10 16 N/A
12:35 am 00:35 Clear 74 23.6 67 19.5 78 78 NNE 3 6 30.00 1016 10 16 N/A
12:55 am 00:55 Clear 74 23.6 68 19.9 80 80 N N/A 30.00 1016 10 16 N/A
1:15 am 01:15 Clear 74 23.6 68 20 80 80 N N/A 30.00 1016 10 16 N/A
1:35 am 01:35 Clear 74 23.6 68 20 80 80 NNW 3 6 30.00 1016 10 16 N/A
1:55 am 01:55 Clear 74 23.6 68 19.9 80 80 N N/A 30.00 1016 10 16 N/A
2:15 am 02:15 Clear 74 23.6 68 19.8 79 79 N N/A 30.00 1016 10 16 N/A
2:35 am 02:35 Clear 72 22.3 66 18.7 80 80 N N/A 30.00 1016 10 16 N/A
2:55 am 02:55 Partly Cloudy 73 23 67 19.2 79 79 N N/A 30.00 1016 10 16 N/A
3:15 am 03:15 Partly Cloudy 72 22.3 66 18.8 81 81 N N/A 29.97 1015 10 16 N/A
3:35 am 03:35 Clear 71 21.6 65 18.1 81 81 N N/A 29.97 1015 10 16 N/A
3:55 am 03:55 Partly Cloudy 73 22.5 66 19 81 81 N N/A 29.97 1015 10 16 N/A
4:15 am 04:15 Partly Cloudy 72 22.3 66 18.8 81 81 N N/A 29.97 1015 10 16 N/A
4:35 am 04:35 Clear 72 22.1 66 18.7 81 81 N N/A 29.97 1015 10 16 N/A
4:55 am 04:55 Clear 71 21.6 65 18.3 82 82 N N/A 29.97 1015 10 16 N/A
5:15 am 05:15 Mostly Cloudy 71 21.6 65 18.2 81 81 N N/A 29.97 1015 10 16 N/A
5:35 am 05:35 Partly Cloudy 72 22.3 66 19 82 82 N N/A 29.97 1015 10 16 N/A
5:55 am 05:55 Partly Cloudy 72 22.3 66 19 82 82 N N/A 29.97 1015 10 16 N/A
6:15 am 06:15 Partly Cloudy 72 22.1 66 18.9 82 82 N 6 9 29.97 1015 10 16 N/A
6:35 am 06:35 Partly Cloudy 71 21.7 65 18.5 82 82 N N/A 30.00 1016 10 16 N/A
6:55 am 06:55 Mostly Cloudy 71 21.7 66 18.7 83 83 N N/A 30.00 1016 7 11 N/A
7:15 am 07:15 Cloudy 72 22.3 67 19.3 83 83 N N/A 30.00 1016 7 11 N/A
7:35 am 07:35 Mostly Cloudy 74 23.6 69 20.6 83 83 N N/A 30.00 1016 7 11 N/A
7:55 am 07:55 Partly Cloudy 74 23.6 69 20.5 83 83 N N/A 30.00 1016 7 11 N/A
8:15 am 08:15 Partly Cloudy 74 23.6 68 19.8 79 79 NE 3 6 30.00 1016 10 16 N/A
8:35 am 08:35 Mostly Cloudy 74 23.6 68 19.8 79 79 NE 5 7 30.00 1016 10 16 N/A
8:55 am 08:55 Partly Cloudy 76 24.3 69 20.4 79 79 NE 3 6 30.00 1016 10 16 N/A
9:15 am 09:15 Partly Cloudy 77 25.1 69 20.6 76 76 N N/A 30.00 1016 10 16 N/A
9:35 am 09:35 Partly Cloudy 80 26.5 70 21 72 72 N N/A 30.00 1016 10 16 N/A
9:55 am 09:55 Partly Cloudy 80 26.5 70 20.9 71 71 N N/A 30.00 1016 10 16 N/A
10:15 am 10:15 Partly Cloudy 80 26.5 68 20 68 68 N N/A 30.00 1016 10 16 N/A
10:35 am 10:35 Sunny 81 27.4 68 20 64 64 N N/A 30.00 1016 10 16 N/A
10:55 am 10:55 Sunny 83 28.3 69 20.3 62 62 N 3 6 29.97 1015 10 16 N/A
11:15 am 11:15 Sunny 85 29.2 67 19.5 56 56 ENE 3 6 29.97 1015 10 16 N/A
11:35 am 11:35 Sunny 86 29.8 68 19.8 55 55 NNW 3 6 29.97 1015 10 16 N/A
11:55 am 11:55 Sunny 89 31.5 68 19.9 50 50 N N/A 29.97 1015 10 16 N/A
12:15 pm 12:15 Sunny 90 32.1 67 19.3 47 47 NW 3 6 29.97 1015 10 16 N/A
12:35 pm 12:35 Sunny 90 32.1 65 18.2 44 44 NNW 5 7 29.97 1015 10 16 N/A
12:55 pm 12:55 Sunny 90 32.1 63 17.1 41 41 N N/A 29.97 1015 10 16 N/A
1:15 pm 13:15 Sunny 90 32.1 61 16 38 38 ENE 6 9 29.94 1014 10 16 N/A
1:35 pm 13:35 Sunny 90 32.1 61 16.3 39 39 N 3 6 29.94 1014 10 16 N/A
1:55 pm 13:55 Partly Cloudy 90 32.2 62 16.6 39 39 ENE 9 15 29.94 1014 10 16 N/A
2:15 pm 14:15 Partly Cloudy 90 32.1 64 17.6 42 42 NE 7 11 29.94 1014 10 16 N/A
2:35 pm 14:35 Mostly Cloudy 90 32.1 64 17.8 42 42 NE 9 15 29.94 1014 10 16 N/A
2:55 pm 14:55 Mostly Cloudy 90 32.1 64 17.9 43 43 ENE 9 15 29.94 1014 10 16 N/A
3:15 pm 15:15 Partly Cloudy 90 32.1 64 17.5 42 42 E 7 11 29.91 1013 10 16 N/A
3:35 pm 15:35 Sunny 91 32.5 61 15.9 37 37 ENE 6 9 29.91 1013 10 16 N/A
3:55 pm 15:55 Sunny 92 33.1 59 14.8 33 33 N N/A 29.91 1013 10 16 N/A
4:15 pm 16:15 Mostly Cloudy 90 32.1 58 14.5 34 34 E 7 11 29.91 1013 10 16 N/A
4:35 pm 16:35 Partly Cloudy 90 32.1 59 15.2 36 36 SSE 8 13 29.91 1013 10 16 N/A
4:55 pm 16:55 Partly Cloudy 90 32.1 60 15.5 37 37 E 6 9 29.91 1013 10 16 N/A
5:15 pm 17:15 Partly Cloudy 93 34.1 62 16.4 35 35 SE 6 9 29.91 1013 10 16 N/A
5:35 pm 17:35 Partly Cloudy 90 32.1 62 16.6 39 39 E 6 9 29.91 1013 10 16 N/A
5:55 pm 17:55 Mostly Cloudy 92 33.4 60 15.7 34 34 E 8 13 29.91 1013 10 16 N/A
6:15 pm 18:15 Mostly Cloudy 90 32.2 58 14.2 34 34 ESE 6 9 29.88 1012 10 16 N/A
6:35 pm 18:35 Sunny 90 32.1 62 16.6 39 39 ESE 5 7 29.88 1012 10 16 N/A
6:55 pm 18:55 Sunny 90 32.1 62 16.9 40 40 ESE 7 11 29.91 1013 10 16 N/A
7:15 pm 19:15 Partly Cloudy 90 32.1 64 17.9 43 43 E 6 9 29.91 1013 10 16 N/A
7:35 pm 19:35 Partly Cloudy 90 32.1 64 17.8 42 42 ESE 6 9 29.88 1012 10 16 N/A
7:55 pm 19:55 Sunny 90 32.1 65 18.5 44 44 SE 3 6 29.88 1012 10 16 N/A
8:15 pm 20:15 Sunny 90 32.1 66 18.7 45 45 ENE 5 7 29.88 1012 10 16 N/A
8:35 pm 20:35 Sunny 87 30.3 64 17.9 47 47 SE 3 6 29.88 1012 10 16 N/A
8:55 pm 20:55 Clear 85 29.3 63 17.1 48 48 SE 3 6 29.88 1012 10 16 N/A
9:15 pm 21:15 Clear 80 26.7 67 19.4 64 64 N N/A 29.91 1013 10 16 N/A
9:35 pm 21:35 Clear 77 25.2 68 19.8 72 72 N N/A 29.91 1013 10 16 N/A
9:55 pm 21:55 Clear 77 25.1 68 20.1 74 74 N N/A 29.91 1013 10 16 N/A
10:15 pm 22:15 Clear 77 25.1 69 20.5 76 76 N N/A 29.91 1013 10 16 N/A
10:35 pm 22:35 Clear 74 23.6 67 19.5 78 78 N 5 7 29.91 1013 7 11 N/A
10:55 pm 22:55 Clear 74 23.6 67 19.5 78 78 N N/A 29.91 1013 10 16 N/A
11:15 pm 23:15 Clear 74 23.6 67 19.5 78 78 N N/A 29.94 1014 10 16 N/A
11:35 pm 23:35 Clear 74 23.6 68 19.8 79 79 N N/A 29.94 1014 10 16 N/A
11:55 pm 23:55 Clear 74 23.6 67 19.6 78 78 N N/A 29.94 1014 10 16 N/A

Powered by AerisWeather